TimeCDT,TemperatureF,Dew PointF,Humidity,Sea Level PressureIn,VisibilityMPH,Wind Direction,Wind SpeedMPH,Gust SpeedMPH,PrecipitationIn,Events,Conditions,WindDirDegrees,DateUTC
12:13 AM,39.9,32.7,75,29.90,10.0,West,12.7,-,N/A,,Clear,260,2011-10-17 05:13:00
12:33 AM,39.4,32.5,76,29.89,10.0,West,10.4,-,N/A,,Clear,260,2011-10-17 05:33:00
12:53 AM,39.4,32.9,78,29.89,10.0,West,10.4,-,N/A,,Clear,270,2011-10-17 05:53:00
1:13 AM,39.4,32.5,76,29.89,10.0,West,10.4,-,N/A,,Clear,270,2011-10-17 06:13:00
1:32 AM,39.4,33.1,78,29.89,10.0,WSW,11.5,-,N/A,,Clear,250,2011-10-17 06:32:00
1:53 AM,39.4,33.1,78,29.89,10.0,West,12.7,-,N/A,,Clear,260,2011-10-17 06:53:00
2:13 AM,39.4,33.4,79,29.89,10.0,West,11.5,-,N/A,,Clear,270,2011-10-17 07:13:00
2:33 AM,39.4,33.8,80,29.89,10.0,West,11.5,-,N/A,,Clear,260,2011-10-17 07:33:00
2:52 AM,37.8,32.4,81,29.89,10.0,West,10.4,-,N/A,,Clear,260,2011-10-17 07:52:00
3:13 AM,37.6,32.5,82,29.89,10.0,West,11.5,-,N/A,,Clear,260,2011-10-17 08:13:00
3:33 AM,37.0,32.0,82,29.89,10.0,WSW,10.4,-,N/A,,Clear,250,2011-10-17 08:33:00
3:52 AM,37.2,32.2,82,29.89,10.0,West,10.4,-,N/A,,Clear,270,2011-10-17 08:52:00
4:13 AM,36.9,32.0,83,29.89,10.0,West,10.4,-,N/A,,Clear,260,2011-10-17 09:13:00
4:33 AM,37.0,32.0,82,29.89,10.0,West,11.5,-,N/A,,Clear,260,2011-10-17 09:33:00
4:53 AM,36.9,32.4,84,29.89,10.0,West,10.4,-,N/A,,Clear,260,2011-10-17 09:53:00
5:13 AM,36.9,32.2,83,29.89,10.0,West,11.5,-,N/A,,Clear,270,2011-10-17 10:13:00
5:32 AM,37.6,32.5,82,29.89,10.0,West,11.5,-,N/A,,Clear,270,2011-10-17 10:32:00
5:53 AM,36.9,32.0,83,29.89,10.0,West,11.5,-,N/A,,Clear,260,2011-10-17 10:53:00
6:13 AM,36.9,32.2,83,29.89,10.0,West,10.4,-,N/A,,Clear,270,2011-10-17 11:13:00
6:32 AM,37.6,32.5,82,29.89,10.0,West,10.4,-,N/A,,Clear,280,2011-10-17 11:32:00
6:53 AM,36.9,32.4,84,29.89,10.0,WSW,9.2,-,N/A,,Clear,250,2011-10-17 11:53:00
7:12 AM,34.3,31.1,88,29.89,10.0,WSW,9.2,-,N/A,,Clear,250,2011-10-17 12:12:00
7:33 AM,34.3,31.1,88,29.89,10.0,WSW,8.1,-,N/A,,Clear,250,2011-10-17 12:33:00
7:52 AM,35.4,32.2,88,29.89,10.0,West,11.5,-,N/A,,Clear,270,2011-10-17 12:52:00
8:13 AM,36.9,32.5,84,29.89,10.0,WSW,9.2,-,N/A,,Clear,250,2011-10-17 13:13:00
8:33 AM,37.6,32.7,83,29.89,10.0,West,12.7,-,N/A,,Clear,260,2011-10-17 13:33:00
8:53 AM,39.4,33.8,80,29.90,10.0,West,10.4,-,N/A,,Clear,270,2011-10-17 13:53:00
9:12 AM,41.5,34.0,75,29.89,10.0,West,12.7,17.3,N/A,,Clear,270,2011-10-17 14:12:00
9:33 AM,43.5,34.0,69,29.89,10.0,West,12.7,-,N/A,,Clear,270,2011-10-17 14:33:00
9:52 AM,46.9,35.2,64,29.90,10.0,West,15.0,19.6,N/A,,Clear,270,2011-10-17 14:52:00
10:13 AM,49.5,36.7,61,29.90,10.0,West,12.7,-,N/A,,Clear,270,2011-10-17 15:13:00
10:33 AM,49.5,35.2,58,29.89,10.0,West,13.8,20.7,N/A,,Clear,280,2011-10-17 15:33:00
10:52 AM,49.5,33.8,55,29.89,10.0,West,13.8,21.9,N/A,,Clear,280,2011-10-17 15:52:00
11:13 AM,52.0,34.3,51,29.89,10.0,West,18.4,24.2,N/A,,Clear,280,2011-10-17 16:13:00
11:33 AM,54.5,35.1,48,29.90,10.0,West,19.6,25.3,N/A,,Clear,280,2011-10-17 16:33:00
11:53 AM,54.5,34.7,47,29.89,10.0,West,25.3,29.9,N/A,,Clear,280,2011-10-17 16:53:00
12:12 PM,54.5,34.0,46,29.89,10.0,West,16.1,25.3,N/A,,Clear,280,2011-10-17 17:12:00
12:33 PM,54.5,33.1,44,29.89,10.0,West,18.4,27.6,N/A,,Clear,280,2011-10-17 17:33:00
12:53 PM,55.8,32.7,42,29.89,10.0,WNW,15.0,27.6,N/A,,Clear,290,2011-10-17 17:53:00
1:13 PM,55.4,32.7,42,29.89,10.0,West,18.4,24.2,N/A,,Clear,280,2011-10-17 18:13:00
1:53 PM,57.2,32.0,38,29.88,10.0,WNW,15.0,28.8,N/A,,Clear,290,2011-10-17 18:53:00
2:13 PM,57.2,30.9,37,29.87,10.0,WNW,15.0,27.6,N/A,,Clear,290,2011-10-17 19:13:00
2:32 PM,57.2,30.2,36,29.86,10.0,WNW,19.6,27.6,N/A,,Clear,290,2011-10-17 19:32:00
2:53 PM,57.2,29.3,35,29.86,10.0,WNW,23.0,27.6,N/A,,Clear,300,2011-10-17 19:53:00
3:13 PM,57.2,30.0,36,29.86,10.0,WNW,20.7,28.8,N/A,,Clear,300,2011-10-17 20:13:00
3:33 PM,57.2,30.0,36,29.86,10.0,WNW,20.7,33.4,N/A,,Clear,300,2011-10-17 20:33:00
3:52 PM,57.2,30.0,36,29.86,10.0,WNW,20.7,28.8,N/A,,Clear,290,2011-10-17 20:52:00
4:13 PM,57.4,30.0,35,29.86,10.0,WNW,20.7,26.5,N/A,,Clear,300,2011-10-17 21:13:00
4:33 PM,57.4,30.0,35,29.86,10.0,WNW,19.6,25.3,N/A,,Clear,290,2011-10-17 21:33:00
4:53 PM,57.2,29.7,35,29.86,10.0,WNW,17.3,31.1,N/A,,Clear,290,2011-10-17 21:53:00
5:13 PM,57.2,30.6,36,29.86,10.0,WNW,15.0,27.6,N/A,,Clear,290,2011-10-17 22:13:00
5:33 PM,56.8,30.0,36,29.86,10.0,WNW,15.0,24.2,N/A,,Clear,300,2011-10-17 22:33:00
5:53 PM,54.5,29.8,39,29.86,10.0,WNW,9.2,-,N/A,,Clear,290,2011-10-17 22:53:00
6:12 PM,54.5,30.0,39,29.86,10.0,WNW,12.7,18.4,N/A,,Clear,300,2011-10-17 23:12:00
6:33 PM,54.3,31.6,42,29.86,10.0,WNW,8.1,-,N/A,,Clear,290,2011-10-17 23:33:00
7:12 PM,49.6,29.8,47,29.87,10.0,WNW,6.9,-,N/A,,Clear,290,2011-10-18 00:12:00
7:33 PM,49.5,30.7,49,29.87,10.0,West,6.9,-,N/A,,Clear,280,2011-10-18 00:33:00
7:53 PM,49.5,31.5,50,29.87,10.0,West,5.8,-,N/A,,Clear,280,2011-10-18 00:53:00
8:12 PM,46.9,30.7,53,29.88,10.0,West,5.8,-,N/A,,Clear,280,2011-10-18 01:12:00
8:33 PM,44.6,29.8,56,29.88,10.0,West,6.9,-,N/A,,Clear,280,2011-10-18 01:33:00
8:52 PM,42.1,29.1,60,29.88,10.0,West,5.8,-,N/A,,Clear,270,2011-10-18 01:52:00
9:13 PM,46.8,31.8,56,29.88,10.0,West,8.1,-,N/A,,Clear,280,2011-10-18 02:13:00
9:33 PM,45.9,31.3,57,29.89,10.0,West,8.1,-,N/A,,Clear,280,2011-10-18 02:33:00
10:13 PM,42.1,30.4,63,29.89,10.0,West,8.1,-,N/A,,Clear,270,2011-10-18 03:13:00
10:32 PM,39.4,30.0,69,29.90,10.0,West,6.9,-,N/A,,Clear,270,2011-10-18 03:32:00
10:53 PM,37.4,29.3,73,29.90,10.0,West,6.9,-,N/A,,Clear,260,2011-10-18 03:53:00
11:12 PM,37.2,30.0,75,29.90,10.0,West,6.9,-,N/A,,Clear,270,2011-10-18 04:12:00
11:33 PM,39.9,31.3,71,29.90,10.0,West,8.1,-,N/A,,Clear,280,2011-10-18 04:33:00
11:53 PM,40.6,31.1,69,29.91,10.0,West,6.9,-,N/A,,Clear,280,2011-10-18 04:53:00